MET5691 - Baltimore to Boston

Embraer ERJ-170LR
N920AU
1 hr 15 mins
321 nm
Scheduled - Daily

Bid/PiRep Status

Bid was submitted on Jan 02 2017.

PiRep # 74602: Approved by Sean Doyle on January 4th, 2017 23:10 UTC

Departure

Departing from
Baltimore (BWI)
Departure gate
Scheduled Departure
GMT 1310
Local 0910
METAR KBWI 250254Z 32003KT 10SM FEW050 BKN250 21/17 A2995 RMK AO2 SLP141 T02060172 51019
TAF KBWI 242320Z 2500/2606 28007KT P6SM SCT050 SCT200 FM250300 33005KT P6SM SCT050 SCT200 FM250900 VRB03KT P6SM FEW050 SCT200 FM251400 29010G18KT P6SM SCT060 FM252300 29008KT P6SM FEW250

Arrival

Arriving at
Boston (BOS)
Arrival gate
Scheduled Arrival
GMT 1425
Local 1025

Route Map

Planning Resources

PALEO3,HTO,WOONS1
OOD J42 RBV J222 JFK
SWANN3 DQO DAVYS J42 LAURN J222 JFK J225 NEWES INNDY2 CCC TELLE KENEE WOBUR EMMEL FIX 17
DCT SWANN DCT OOD J42 RBV J222 JFK KRANN3
ODD DAVYS BRAND RBV LAURN SANTT PACER HFD PUT
Route:
OFP Layout:
Units:
Detailed Navlog:
ETOPS Planning:
Plan Stepclimbs:
Runway Analysis:
Include NOTAMS:
FIR NOTAMS:
Flight Maps:

Return Flights

MET764
Airbus A321-232
2100 GMT
MET5690
Embraer ERJ-170LR
0122 GMT
MET5692
Embraer ERJ-170LR
1455 GMT
MET5764
Embraer ERJ-170LR
1135 GMT

Popularity

Hub Current Bids PiReps this month Total PiReps
KMCI 0 0 6
KLAX 0 0 2
KBOS 0 0 1